Regional Weather Roundup
Issued by NWS

Home | Current Version | Previous Version | Graphics & Text | Print | Product List | Glossary On
Versions: 1 2 3 4 5 6 7 8 9 10 11 12 13 14 15 16 17 18 19 20 21 22 23 24 25 26 27 28 29 30 31 32 33 34 35 36 37 38 39 40 41 42 43 44 45 46 47 48 49 50
000
ASUS43 KBIS 251810
RWRND

NORTH DAKOTA REGIONAL WEATHER ROUNDUP
NATIONAL WEATHER SERVICE BISMARCK ND
100 PM CDT FRI JUL 25 2014

NOTE: "FAIR" INDICATES FEW OR NO CLOUDS BELOW 12,000 FEET WITH NO
SIGNIFICANT WEATHER AND/OR OBSTRUCTIONS TO VISIBILITY.


NDZ001>003-009>011-017-251900-
NORTHWEST NORTH DAKOTA

CITY           SKY/WX    TMP DP  RH WIND       PRES   REMARKS
WILLISTON      SUNNY     77  41  27 W16G28    29.83F
6HR MIN TEMP:  55; 6HR MAX TEMP:  77;

MINOT          SUNNY     75  47  36 W17G26    29.82F
MINOT AFB      SUNNY     73  54  50 W15G21    29.81F
$$

NDZ018>021-031>035-040>046-251900-
SOUTHWEST NORTH DAKOTA

CITY           SKY/WX    TMP DP  RH WIND       PRES   REMARKS
BISMARCK       SUNNY     80  48  32 NW12      29.86F
6HR MIN TEMP:  68; 6HR MAX TEMP:  80;

DICKINSON      SUNNY     74  45  35 SW9       29.89F
GARRISON         N/A     74  50  42 NW12      29.86F
6HR MIN TEMP:  59; 6HR MAX TEMP:  74;

HETTINGER ARPT SUNNY     76  41  28 N9        29.93F
$$

NDZ004>008-012>016-024-026-027-054-251900-
NORTHEAST NORTH DAKOTA

CITY           SKY/WX    TMP DP  RH WIND       PRES   REMARKS
GRAND FORKS    PTSUNNY   77  67  71 S6        29.74S
GRND FRKS AFB  PTSUNNY   79  71  76 SW8       29.75S
DEVILS LAKE    SUNNY     75  52  43 NW16      29.79S
$$

NDZ022-023-025-028>030-036>039-047>053-251900-
SOUTHEAST NORTH DAKOTA

CITY           SKY/WX    TMP DP  RH WIND       PRES   REMARKS
FARGO          CLOUDY    76  66  71 N6        29.76F
6HR MIN TEMP:  67; 6HR MAX TEMP:  76;

JAMESTOWN      MOSUNNY   77  54  44 NW22G29   29.81R
$$




USA.gov is the U.S. government's official web portal to all federal, state and local government web resources and services.